GW3211 Weather Reports


time (UTC)temp
F
wind
direction
speed
knots
gust
knots
rain 1hr
in
rain 24hr
in
rain mn
in
humidity
%
barometer
mb
20260508113411 45 158 0.0 1.7 0.00 0.00 0.00 100 1018.0
20260508113136 45 116 0.0 1.7 0.00 0.00 0.00 100 1017.8
20260508112341 44 94 0.0 1.7 0.00 0.00 0.00 100 1017.8
20260508111811 42 124 0.0 1.7 0.00 0.00 0.00 100 1017.6
20260508111310 42 139 0.9 1.7 0.00 0.00 0.00 100 1017.6
20260508110740 42 114 0.0 1.7 0.00 0.00 0.00 100 1017.8
20260508105711 39 120 1.7 1.7 0.00 0.00 0.00 100 1017.8
20260508105139 38 101 0.0 1.7 0.00 0.00 0.00 100 1017.7
20260508104609 38 118 0.0 1.7 0.00 0.00 0.00 100 1017.5
20260508104109 38 100 0.0 1.7 0.00 0.00 0.00 100 1017.5
20260508103756 38 119 0.9 1.7 0.00 0.00 0.00 100 1017.2
20260508103233 37 105 0.0 1.7 0.00 0.00 0.00 100 1017.3
20260508102510 37 86 0.9 1.7 0.00 0.00 0.00 100 1017.3
20260508101939 37 68 0.9 1.7 0.00 0.00 0.00 100 1017.2
20260508101408 38 90 0.0 1.7 0.00 0.00 0.00 100 1017.0
20260508100909 38 126 0.0 1.7 0.00 0.00 0.00 100 1017.1
20260508100338 38 57 0.0 1.7 0.00 0.00 0.00 100 1017.1
20260508095808 38 36 0.0 1.7 0.00 0.00 0.00 100 1017.1
20260508095307 38 129 0.0 1.7 0.00 0.00 0.00 100 1016.9
20260508094737 38 104 1.7 1.7 0.00 0.00 0.00 100 1017.1
20260508094208 38 81 0.0 1.7 0.00 0.00 0.00 100 1017.0
20260508093707 39 135 0.0 1.7 0.00 0.00 0.00 100 1016.9
20260508093138 39 112 0.9 1.7 0.00 0.00 0.00 100 1016.6
20260508092607 40 21 0.0 1.7 0.00 0.00 0.00 100 1016.8
20260508092107 40 63 1.7 1.7 0.00 0.00 0.00 100 1016.7
20260508091549 40 81 0.0 1.7 0.00 0.00 0.00 100 1016.6
20260508091006 41 90 0.0 1.7 0.00 0.00 0.00 100 1016.5
20260508090506 41 344 0.0 1.7 0.00 0.00 0.00 100 1016.5
20260508085936 40 72 0.0 1.7 0.00 0.00 0.00 100 1016.6
20260508085406 40 71 0.0 1.7 0.00 0.00 0.00 100 1016.5
20260508084905 41 194 0.0 1.7 0.00 0.00 0.00 100 1016.3
20260508084336 41 104 0.9 1.7 0.00 0.00 0.00 100 1016.3
20260508083806 41 277 0.9 1.7 0.00 0.00 0.00 100 1016.0
20260508083305 41 78 0.9 1.7 0.00 0.00 0.00 100 1016.3
20260508082737 41 107 0.0 1.7 0.00 0.00 0.00 100 1016.0
20260508082205 41 34 0.0 1.7 0.00 0.00 0.00 100 1016.2
20260508081931 41 81 0.0 1.7 0.00 0.00 0.00 100 1016.1
20260508081134 42 92 1.7 1.7 0.00 0.00 0.00 100 1016.0
20260508080635 41 80 0.9 1.7 0.00 0.00 0.00 100 1016.0
20260508080339 42 95 0.0 1.7 0.00 0.00 0.00 100 1016.1
20260508075534 42 119 0.9 1.7 0.00 0.00 0.00 100 1015.8
20260508075038 42 81 0.0 1.7 0.00 0.00 0.00 100 1015.7
20260508074504 42 95 0.0 2.6 0.00 0.00 0.00 100 1015.6
20260508073934 43 95 0.0 2.6 0.00 0.00 0.00 100 1015.6
20260508073434 43 81 0.9 1.7 0.00 0.00 0.00 100 1015.4
20260508072904 44 129 0.0 2.6 0.00 0.00 0.00 100 1015.1
20260508072333 44 133 0.0 2.6 0.00 0.00 0.00 100 1015.2
20260508072053 44 53 0.0 1.7 0.00 0.00 0.00 100 1015.1
20260508071527 45 73 0.0 1.7 0.00 0.00 0.00 100 1015.2
20260508070952 45 83 0.9 2.6 0.00 0.00 0.00 100 1014.9
20260508070232 45 98 0.0 2.6 0.00 0.00 0.00 100 1014.8
20260508065702 45 94 0.0 1.7 0.00 0.00 0.00 100 1014.8
20260508065132 45 114 0.0 1.7 0.00 0.00 0.00 100 1014.7
20260508064852 45 65 0.0 1.7 0.00 0.00 0.00 100 1014.4
20260508064103 45 89 0.9 1.7 0.00 0.00 0.00 100 1014.6
20260508063531 46 126 0.0 1.7 0.00 0.00 0.00 100 1014.6
20260508063302 46 29 1.7 2.6 0.00 0.00 0.00 100 1014.6
20260508062726 46 50 1.7 2.6 0.00 0.00 0.00 100 1014.5
20260508061931 47 86 1.7 1.7 0.00 0.00 0.00 100 1014.6
20260508061431 47 49 0.0 1.7 0.00 0.01 0.00 100 1014.5
20260508060901 47 157 0.0 1.7 0.00 0.01 0.00 100 1014.4
20260508060330 47 113 0.9 1.7 0.00 0.01 0.00 100 1014.4
20260508055831 47 179 0.0 1.7 0.00 0.01 0.00 100 1014.4
20260508055300 47 57 0.0 1.7 0.00 0.01 0.00 100 1014.4
20260508054731 47 136 1.7 2.6 0.00 0.01 0.00 100 1014.4
20260508054230 47 210 0.0 2.6 0.00 0.01 0.00 100 1014.3
20260508053700 47 319 1.7 2.6 0.00 0.01 0.00 100 1014.2
20260508053131 47 215 0.9 3.5 0.00 0.02 0.00 99 1014.3
20260508052630 47 143 0.0 3.5 0.00 0.04 0.00 99 1014.3
20260508052320 47 122 0.0 2.6 0.00 0.05 0.00 99 1014.4
20260508051530 47 187 0.0 3.5 0.00 0.08 0.00 99 1014.3
20260508051255 47 158 0.0 3.5 0.00 0.09 0.00 98 1014.2
20260508050501 47 195 1.7 2.6 0.00 0.12 0.00 98 1014.2
20260508045930 48 60 0.0 1.7 0.00 0.12 0.00 98 1014.2
20260508045428 48 144 0.0 2.6 0.00 0.13 0.00 97 1014.2
20260508044858 48 172 0.0 2.6 0.00 0.13 0.00 97 1014.1
20260508044329 48 246 0.9 2.6 0.00 0.13 0.00 97 1014.0
20260508043828 48 172 0.0 1.7 0.00 0.13 0.00 96 1014.1
20260508043258 49 229 0.0 2.6 0.00 0.13 0.00 96 1013.8
20260508042728 49 152 0.0 2.6 0.00 0.13 0.00 95 1013.8
20260508042228 49 51 0.0 4.3 0.00 0.13 0.00 95 1013.9
20260508041657 49 103 0.0 4.3 0.00 0.13 0.00 95 1013.8
20260508041127 49 176 1.7 3.5 0.00 0.13 0.00 94 1013.8
20260508040627 49 167 0.0 2.6 0.00 0.13 0.00 94 1013.8
20260508040110 50 327 0.0 3.5 0.00 0.13 0.00 93 1013.6
20260508035528 50 106 1.7 3.5 0.00 0.13 0.13 93 1013.7
20260508035031 50 229 2.6 4.3 0.00 0.13 0.13 93 1013.6
20260508034457 50 213 1.7 4.3 0.00 0.13 0.13 92 1013.6
20260508033926 50 331 0.0 4.3 0.00 0.13 0.13 93 1013.7
20260508033427 50 194 1.7 4.3 0.00 0.13 0.13 93 1013.4
20260508032855 50 185 1.7 4.3 0.00 0.13 0.13 92 1013.7
20260508032325 50 189 2.6 3.5 0.00 0.13 0.13 92 1013.6
20260508031826 50 205 0.9 3.5 0.00 0.13 0.13 92 1013.7
20260508031255 50 227 3.5 3.5 0.00 0.13 0.13 92 1013.8
20260508030942 50 133 0.0 5.2 0.00 0.13 0.13 92 1013.5
20260508030225 50 165 1.7 5.2 0.00 0.13 0.13 92 1013.5
20260508025154 49 266 0.9 2.6 0.00 0.13 0.13 95 1013.4
20260508024625 48 170 1.7 2.6 0.00 0.13 0.13 96 1013.4
20260508024313 47 137 0.0 1.7 0.00 0.13 0.13 96 1013.5
20260508023555 47 158 0.0 1.7 0.00 0.13 0.13 96 1013.2
20260508023027 47 135 0.0 1.7 0.00 0.13 0.13 96 1013.5
20260508022453 47 101 0.0 1.7 0.00 0.13 0.13 96 1013.6
20260508021953 47 98 0.0 1.7 0.00 0.13 0.13 95 1013.5
20260508021425 47 70 0.0 1.7 0.00 0.13 0.13 95 1013.5
20260508020853 47 105 0.0 1.7 0.00 0.13 0.13 94 1013.4
20260508020353 48 81 0.0 1.7 0.00 0.13 0.13 93 1013.6
20260508015825 48 147 0.0 3.5 0.00 0.13 0.13 93 1013.4
20260508015512 48 132 0.0 3.5 0.00 0.13 0.13 92 1013.4
20260508014753 48 47 0.0 1.7 0.00 0.13 0.13 91 1013.3
20260508014223 49 202 0.0 2.6 0.00 0.13 0.13 91 1013.3
20260508013653 49 126 0.0 2.6 0.00 0.13 0.13 91 1013.3
20260508013153 49 145 0.0 1.7 0.00 0.13 0.13 92 1013.3
20260508012622 48 142 0.0 1.7 0.00 0.13 0.13 92 1013.2
20260508012052 48 132 0.0 0.0 0.00 0.13 0.13 92 1013.2
20260508011552 49 142 0.0 0.9 0.00 0.13 0.13 91 1013.0
20260508011255 49 166 0.0 1.7 0.00 0.13 0.13 90 1012.8
20260508010451 49 154 0.0 1.7 0.00 0.13 0.13 89 1012.6
20260508005952 49 162 1.7 1.7 0.00 0.13 0.13 90 1012.7
20260508005421 48 150 0.0 1.7 0.00 0.13 0.13 90 1012.6
20260508004851 49 90 0.0 1.7 0.00 0.13 0.13 88 1012.7
20260508004350 49 58 0.9 1.7 0.00 0.13 0.13 87 1012.8
20260508003822 50 133 0.0 2.6 0.00 0.13 0.13 85 1012.3
20260508003251 50 136 1.7 2.6 0.00 0.13 0.13 84 1012.3
20260508002751 51 141 1.7 3.5 0.00 0.13 0.13 82 1012.2
20260508002219 51 114 1.7 3.5 0.00 0.13 0.13 80 1012.4
20260508001909 52 189 0.0 1.7 0.00 0.13 0.13 78 1012.2
20260508001412 53 131 1.7 2.6 0.00 0.13 0.13 76 1012.0
20260508000621 54 153 0.0 3.5 0.00 0.13 0.13 74 1012.0
20260508000104 54 143 0.0 3.5 0.00 0.13 0.13 73 1011.7
20260507235548 54 198 1.7 2.6 0.00 0.13 0.13 72 1012.0
20260507235022 55 161 1.7 1.7 0.00 0.13 0.13 71 1011.8
20260507234449 55 158 0.0 3.5 0.00 0.13 0.13 71 1011.9
20260507233950 56 131 3.5 7.8 0.00 0.13 0.13 69 1011.8
20260507233419 56 225 1.7 7.8 0.00 0.13 0.13 67 1011.6
20260507233111 56 218 3.5 7.0 0.00 0.13 0.13 68 1011.7
20260507232347 57 193 1.7 7.0 0.00 0.13 0.13 65 1011.7
20260507231818 57 173 0.0 5.2 0.00 0.13 0.13 66 1011.5
20260507231250 57 161 4.3 5.2 0.00 0.13 0.13 66 1011.5
20260507230747 57 180 1.7 5.2 0.00 0.13 0.13 66 1011.3
20260507230218 58 216 2.6 5.2 0.00 0.13 0.13 63 1011.3
20260507225649 58 183 3.5 6.1 0.00 0.13 0.13 62 1011.4
20260507225147 58 196 1.7 7.0 0.00 0.13 0.13 62 1011.2
20260507224618 58 222 1.7 7.0 0.00 0.13 0.13 61 1011.2
20260507224047 58 211 3.5 8.7 0.00 0.13 0.13 60 1011.2
20260507223546 59 195 1.7 8.7 0.00 0.13 0.13 60 1011.1
20260507223018 59 212 3.5 7.8 0.00 0.13 0.13 60 1011.2
20260507222446 59 172 0.0 7.8 0.00 0.13 0.13 58 1011.1
20260507222207 60 211 2.6 9.6 0.00 0.13 0.13 56 1011.1
20260507221416 60 48 0.9 9.6 0.00 0.13 0.13 58 1011.2
20260507220846 60 107 1.7 7.0 0.00 0.13 0.13 56 1011.4
20260507220345 61 129 0.0 7.0 0.00 0.13 0.13 55 1011.0
20260507215245 61 27 0.9 6.1 0.00 0.13 0.13 57 1011.3
20260507214746 62 229 2.6 7.0 0.00 0.13 0.13 57 1011.4
20260507214216 61 57 4.3 7.0 0.00 0.13 0.13 58 1011.2
20260507213716 61 115 2.6 7.0 0.00 0.13 0.13 57 1011.3
20260507213145 61 53 2.6 4.3 0.00 0.13 0.13 57 1010.9
20260507212615 62 232 4.3 6.1 0.00 0.13 0.13 57 1011.2
20260507212114 62 252 1.7 6.1 0.00 0.13 0.13 58 1011.1
20260507211545 61 98 2.6 6.1 0.00 0.13 0.13 55 1011.2
20260507211013 61 15 0.0 5.2 0.00 0.13 0.13 56 1011.2
20260507210529 60 154 1.7 6.1 0.00 0.13 0.13 56 1011.5
20260507205944 61 157 1.7 9.6 0.00 0.13 0.13 58 1011.0
20260507205414 61 49 4.3 9.6 0.00 0.13 0.13 57 1011.3
20260507205132 60 52 4.3 7.0 0.00 0.13 0.13 58 1011.3
20260507204344 60 189 3.5 6.1 0.00 0.13 0.13 58 1011.3
20260507203813 61 230 1.7 6.1 0.00 0.13 0.13 58 1011.3
20260507203315 61 298 1.7 7.8 0.00 0.13 0.13 58 1011.3
20260507202743 59 166 3.5 8.7 0.00 0.13 0.13 59 1011.3
20260507202214 60 222 5.2 7.0 0.00 0.13 0.13 60 1011.6
20260507201930 60 216 1.7 6.1 0.00 0.13 0.13 61 1011.2
20260507201142 59 147 1.7 5.2 0.00 0.13 0.13 59 1011.3
20260507200625 60 106 2.6 8.7 0.00 0.13 0.13 58 1011.4
20260507200116 60 65 2.6 8.7 0.00 0.13 0.13 57 1011.2
20260507195542 60 133 3.5 7.0 0.00 0.13 0.13 57 1011.4
20260507195244 60 212 2.6 6.1 0.00 0.13 0.13 56 1011.5
20260507194511 60 204 4.3 7.8 0.00 0.13 0.13 58 1011.1
20260507193411 60 110 3.5 7.8 0.00 0.13 0.13 57 1011.9
20260507192912 59 2 2.6 7.8 0.00 0.13 0.13 58 1012.1
20260507192340 61 214 5.2 9.6 0.00 0.13 0.13 57 1012.1
20260507191813 60 135 1.7 9.6 0.00 0.13 0.13 58 1012.1
20260507191312 59 228 3.5 7.8 0.00 0.13 0.13 61 1012.1
20260507190741 57 189 5.2 7.8 0.00 0.13 0.13 62 1011.8
20260507190210 59 348 3.5 7.8 0.00 0.13 0.13 63 1012.0
20260507185711 58 310 0.9 7.8 0.00 0.13 0.13 63 1012.2
20260507185141 60 303 2.6 6.1 0.00 0.13 0.13 60 1012.4
20260507184828 58 205 3.5 6.1 0.00 0.13 0.13 63 1012.6
20260507184109 57 143 1.7 7.0 0.00 0.13 0.13 64 1012.2
20260507183539 58 21 0.0 7.0 0.00 0.13 0.13 63 1012.5
20260507183009 57 153 1.7 5.2 0.00 0.13 0.13 64 1012.5
20260507182511 57 85 0.9 5.2 0.00 0.13 0.13 63 1012.8
20260507181939 57 12 1.7 5.2 0.00 0.13 0.13 62 1012.8
20260507181409 56 175 2.6 5.2 0.00 0.13 0.13 66 1012.6
20260507180908 57 211 5.2 5.2 0.00 0.13 0.13 61 1012.7
20260507180340 57 212 4.3 4.3 0.00 0.13 0.13 61 1012.7
20260507175820 56 80 1.7 3.5 0.00 0.13 0.13 63 1012.9
20260507175308 57 275 1.7 4.3 0.00 0.13 0.13 65 1013.2
20260507175001 56 249 0.9 4.3 0.00 0.13 0.13 70 1013.2
20260507174442 55 193 2.6 4.3 0.00 0.13 0.13 73 1013.6
20260507173708 56 176 1.7 3.5 0.00 0.13 0.13 68 1013.2
20260507173139 57 89 3.5 3.5 0.00 0.13 0.13 61 1013.2
20260507172607 57 17 0.0 4.3 0.00 0.13 0.13 59 1013.3
20260507172108 58 230 2.6 4.3 0.00 0.13 0.13 58 1014.1
20260507171537 59 78 0.9 5.2 0.00 0.13 0.13 55 1013.4
20260507171009 58 317 0.0 5.2 0.00 0.13 0.13 53 1013.4
20260507170507 58 351 2.6 4.3 0.00 0.13 0.13 54 1013.5
20260507165406 57 163 1.7 3.5 0.00 0.13 0.13 58 1014.0
20260507164907 56 268 1.7 5.2 0.00 0.13 0.13 57 1013.7
20260507164336 56 73 3.5 5.2 0.00 0.13 0.13 58 1014.0
20260507163806 58 41 0.0 3.5 0.00 0.13 0.13 56 1013.9
20260507163305 57 209 1.7 3.5 0.00 0.13 0.13 56 1014.0
20260507162956 56 356 1.7 2.6 0.00 0.13 0.13 57 1013.9
20260507162205 56 84 1.7 4.3 0.00 0.13 0.13 55 1013.9
20260507161929 55 0 2.6 4.3 0.00 0.13 0.13 57 1014.1
20260507161135 56 254 1.7 4.3 0.00 0.13 0.13 57 1014.4
20260507160858 55 312 2.6 4.3 0.00 0.13 0.13 56 1014.5
20260507160117 56 327 1.7 3.5 0.00 0.13 0.13 56 1014.5
20260507155535 55 43 1.7 3.5 0.00 0.13 0.13 57 1014.5
20260507155257 56 275 0.0 4.3 0.00 0.13 0.13 61 1014.7
20260507154505 55 77 1.7 4.3 0.00 0.13 0.13 58 1014.6
20260507153935 55 2 2.6 4.3 0.00 0.14 0.13 60 1014.6
20260507153434 55 36 0.9 4.3 0.00 0.15 0.13 62 1014.5
20260507152904 56 35 1.7 6.1 0.00 0.15 0.13 60 1014.3
20260507152334 55 46 2.6 6.1 0.00 0.15 0.13 58 1014.6
20260507151833 55 42 1.7 3.5 0.00 0.15 0.13 65 1014.5
20260507151304 55 0 0.9 3.5 0.00 0.15 0.13 63 1014.7
20260507150734 55 236 0.0 3.5 0.00 0.15 0.13 67 1014.8
20260507150234 55 11 2.6 5.2 0.00 0.15 0.13 65 1014.8
20260507145702 55 28 1.7 5.2 0.00 0.16 0.13 64 1014.6
20260507145134 55 55 1.7 5.2 0.00 0.16 0.13 66 1015.0
20260507144632 55 336 1.7 6.1 0.00 0.18 0.13 64 1015.0
20260507144104 55 358 2.6 7.8 0.00 0.19 0.13 64 1015.2
20260507143533 55 45 1.7 7.8 0.00 0.20 0.13 63 1015.2
20260507143034 55 8 4.3 7.0 0.00 0.22 0.13 63 1015.3
20260507142502 55 30 1.7 7.0 0.00 0.22 0.13 64 1015.1
20260507141932 55 28 2.6 9.6 0.00 0.23 0.13 65 1015.1
20260507141431 55 47 2.6 9.6 0.00 0.23 0.13 66 1015.1
20260507140903 56 337 1.7 8.7 0.00 0.23 0.13 65 1014.9
20260507140332 56 319 0.9 8.7 0.00 0.23 0.13 66 1015.2
20260507135832 56 30 5.2 6.1 0.00 0.24 0.13 66 1015.2
20260507135301 55 357 3.5 8.7 0.00 0.24 0.13 69 1015.3
20260507134733 55 41 0.9 8.7 0.00 0.24 0.13 71 1015.4
20260507134232 55 31 1.7 7.8 0.00 0.24 0.13 70 1015.4
20260507133926 55 37 3.5 7.8 0.00 0.24 0.13 71 1015.1
20260507133130 55 35 2.6 7.8 0.00 0.24 0.13 71 1015.2
20260507132631 55 59 2.6 6.1 0.00 0.24 0.13 74 1015.3
20260507132059 55 108 1.7 8.7 0.00 0.24 0.13 72 1015.1
20260507131530 55 353 2.6 8.7 0.00 0.24 0.13 74 1014.8
20260507131031 54 13 6.1 6.1 0.00 0.24 0.13 77 1015.1
20260507130500 54 37 2.6 5.2 0.00 0.24 0.13 78 1015.0
20260507125930 54 10 1.7 6.1 0.00 0.24 0.13 79 1015.3
20260507125653 54 74 1.7 6.1 0.00 0.24 0.13 77 1015.5
20260507125129 54 359 1.7 5.2 0.00 0.24 0.13 77 1015.4
20260507124552 54 356 1.7 5.2 0.00 0.24 0.13 77 1015.4
20260507123828 54 359 4.3 6.1 0.00 0.24 0.13 78 1015.2
20260507123259 55 23 1.7 7.8 0.00 0.24 0.13 78 1014.9
20260507122729 55 330 1.7 7.8 0.00 0.24 0.13 78 1014.9
20260507122450 55 349 4.3 7.0 0.00 0.24 0.13 77 1014.8
20260507121658 55 329 1.7 7.0 0.00 0.24 0.13 82 1014.9
20260507121127 55 22 1.7 7.8 0.00 0.24 0.13 82 1014.8
20260507120628 54 5 1.7 7.8 0.00 0.24 0.13 81 1014.9
20260507120111 54 84 2.6 4.3 0.00 0.24 0.13 88 1014.8
20260507115526 54 46 3.5 3.5 0.00 0.24 0.13 88 1015.0
20260507115031 54 34 2.6 3.5 0.00 0.24 0.13 90 1014.8
20260507114456 54 18 2.6 3.5 0.00 0.24 0.13 90 1015.0
20260507113927 54 307 0.0 2.6 0.00 0.24 0.13 92 1014.6